Weather History for Howell, MI

Change the Weather History Date:

Thursday, October 3, 2013

  Actual Average Record
Temperature  
Mean Temperature 65 °F -  
Max Temperature 80 °F 64 °F 82 °F (2005)
Min Temperature 50 °F 43 °F 33 °F (1996)
Growing Degree Days 15 (Base 50)    
Moisture  
Dew Point 59 °F    
Average Humidity 80    
Maximum Humidity 99    
Minimum Humidity 59    
Precipitation  
Precipitation 0.00 in - - ()
Sea Level Pressure  
Sea Level Pressure 30.01 in    
Wind  
Wind Speed 4 mph (SSE)    
Max Wind Speed 14 mph    
Max Gust Speed 21 mph    
Visibility 9 miles    
Events      
Averages and records for this station are not official NWS values.
T = Trace of Precipitation, MM = Missing Value Source: NWS Daily Summary

Daily Weather History Graph

Daily Weather History Graph

Search for Another Location

Airport:

Trip Planner

Search our weather history database for the weather conditions in past years. The results will help you decide how hot, cold, wet, or windy it might be!

Date:

Astronomy

Oct. 03, 2013 Rise Set
Actual Time 7:35 AM EDT 7:13 PM EDT
Civil Twilight 7:07 AM EDT 7:41 PM EDT
Nautical Twilight 6:34 AM EDT 8:14 PM EDT
Astronomical Twilight 6:01 AM EDT 8:47 PM EDT
Moon 6:06 AM EDT (10/3) 6:21 PM EDT (10/3)
Length of Visible Light 12h 34m
Length of Day
11h 37m
Waning Crescent, 2% of the Moon is Illuminated
Oct 3
Waning Crescent
Oct 4
New
Oct 11
First Quarter
Oct 18
Full
Oct 26
Last Quarter

Hourly Weather History & Observations

Time (EDT) Temp. Heat Index Dew Point Humidity Pressure Visibility Wind Dir Wind Speed Gust Speed Precip Events Conditions
12:14 AM 50.5 °F - 47.8 °F 90% 30.08 in 10.0 mi Calm Calm - N/A   Clear
12:34 AM 52.0 °F - 49.3 °F 90% 30.08 in 10.0 mi Calm Calm - N/A   Clear
12:55 AM 52.5 °F - 49.5 °F 89% 30.07 in 10.0 mi Calm Calm - N/A   Clear
1:14 AM 51.6 °F - 48.4 °F 89% 30.07 in 10.0 mi Calm Calm - N/A   Clear
1:34 AM 50.9 °F - 48.7 °F 92% 30.06 in 10.0 mi Calm Calm - N/A   Clear
1:55 AM 52.3 °F - 50.0 °F 92% 30.06 in 10.0 mi Calm Calm - N/A   Clear
2:14 AM 52.3 °F - 48.6 °F 87% 30.06 in 10.0 mi Calm Calm - N/A   Clear
2:34 AM 52.7 °F - 48.9 °F 87% 30.06 in 10.0 mi Calm Calm - N/A   Clear
2:55 AM 53.6 °F - 49.3 °F 85% 30.05 in 10.0 mi Calm Calm - N/A   Clear
3:14 AM 53.8 °F - 49.5 °F 85% 30.05 in 10.0 mi Calm Calm - N/A   Clear
3:34 AM 54.3 °F - 49.5 °F 84% 30.05 in 10.0 mi Calm Calm - N/A   Scattered Clouds
3:55 AM 54.7 °F - 50.4 °F 85% 30.04 in 10.0 mi Calm Calm - N/A   Scattered Clouds
4:14 AM 53.8 °F - 50.2 °F 88% 30.04 in 10.0 mi ESE 4.6 mph - N/A   Scattered Clouds
4:34 AM 55.4 °F - 51.3 °F 86% 30.04 in 10.0 mi ESE 5.8 mph - N/A   Scattered Clouds
4:55 AM 57.2 °F - 52.7 °F 85% 30.04 in 10.0 mi ESE 4.6 mph - N/A   Mostly Cloudy
5:14 AM 57.2 °F - 52.7 °F 85% 30.04 in 10.0 mi ESE 4.6 mph - N/A   Mostly Cloudy
5:35 AM 57.0 °F - 52.7 °F 85% 30.04 in 10.0 mi ESE 4.6 mph - N/A   Scattered Clouds
5:54 AM 58.1 °F - 53.6 °F 85% 30.03 in 10.0 mi ESE 4.6 mph - N/A   Scattered Clouds
6:14 AM 57.6 °F - 53.6 °F 87% 30.03 in 10.0 mi ESE 4.6 mph - N/A   Clear
6:35 AM 56.7 °F - 53.4 °F 89% 30.03 in 10.0 mi ESE 3.5 mph - N/A   Clear
6:54 AM 55.9 °F - 53.2 °F 91% 30.04 in 10.0 mi SE 5.8 mph - N/A   Clear
7:14 AM 57.7 °F - 54.0 °F 87% 30.04 in 10.0 mi ESE 5.8 mph - N/A   Clear
7:35 AM 57.6 °F - 54.1 °F 88% 30.04 in 10.0 mi ESE 5.8 mph - N/A   Clear
7:54 AM 58.5 °F - 54.9 °F 88% 30.04 in 7.0 mi ESE 4.6 mph - N/A   Scattered Clouds
8:14 AM 60.3 °F - 56.5 °F 87% 30.04 in 7.0 mi SE 5.8 mph - N/A   Mostly Cloudy
8:35 AM 60.3 °F - 56.5 °F 87% 30.03 in 7.0 mi SE 4.6 mph - N/A   Scattered Clouds
8:54 AM 62.2 °F - 58.1 °F 86% 30.03 in 5.0 mi SE 8.1 mph - N/A   Scattered Clouds
9:14 AM 63.3 °F - 58.3 °F 84% 30.04 in 10.0 mi SSE 6.9 mph - N/A   Mostly Cloudy
9:35 AM 64.0 °F - 58.6 °F 83% 30.04 in 10.0 mi SSE 8.1 mph - N/A   Mostly Cloudy
9:54 AM 64.6 °F - 59.2 °F 83% 30.04 in 10.0 mi SE 5.8 mph - N/A   Mostly Cloudy
10:14 AM 65.3 °F - 59.7 °F 82% 30.04 in 10.0 mi ESE 8.1 mph - N/A   Scattered Clouds
10:35 AM 69.6 °F - 61.7 °F 76% 30.03 in 10.0 mi SSE 6.9 mph - N/A   Scattered Clouds
10:54 AM 70.7 °F - 62.2 °F 75% 30.02 in 10.0 mi SSE 8.1 mph - N/A   Clear
11:14 AM 72.5 °F - 63.0 °F 72% 30.02 in 10.0 mi SSE 6.9 mph - N/A   Clear
11:35 AM 73.4 °F - 63.3 °F 71% 30.02 in 10.0 mi SE 5.8 mph - N/A   Clear
11:54 AM 75.2 °F - 64.2 °F 69% 30.01 in 10.0 mi SSE 9.2 mph - N/A   Scattered Clouds
12:14 PM 76.1 °F - 64.2 °F 67% 30.00 in 10.0 mi South 8.1 mph - N/A   Scattered Clouds
12:35 PM 76.1 °F - 64.9 °F 68% 30.00 in 7.0 mi South 10.4 mph 17.3 mph N/A   Scattered Clouds
12:54 PM 77.0 °F - 65.3 °F 67% 29.99 in 7.0 mi SSW 9.2 mph - N/A   Mostly Cloudy
1:14 PM 77.7 °F - 65.8 °F 67% 29.99 in 7.0 mi South 9.2 mph 18.4 mph N/A   Scattered Clouds
1:34 PM 78.1 °F - 65.8 °F 66% 29.98 in 4.0 mi South 12.7 mph 18.4 mph N/A   Haze
1:54 PM 78.4 °F - 65.3 °F 64% 29.98 in 10.0 mi SSW 6.9 mph - N/A   Scattered Clouds
2:15 PM 77.9 °F - 65.1 °F 65% 29.98 in 10.0 mi SSW 9.2 mph 16.1 mph N/A   Scattered Clouds
2:34 PM 80.2 °F 82.1 °F 65.1 °F 60% 29.97 in 10.0 mi SSW 11.5 mph - N/A   Scattered Clouds
2:54 PM 79.3 °F - 65.5 °F 62% 29.97 in 10.0 mi SW 9.2 mph - N/A   Scattered Clouds
3:15 PM 80.4 °F 82.2 °F 64.8 °F 59% 29.96 in 10.0 mi SSW 11.5 mph 18.4 mph N/A   Mostly Cloudy
3:34 PM 78.6 °F - 65.3 °F 64% 29.96 in 10.0 mi SSW 11.5 mph 19.6 mph N/A   Mostly Cloudy
3:54 PM 78.6 °F - 64.4 °F 62% 29.96 in 10.0 mi SW 13.8 mph 20.7 mph N/A   Mostly Cloudy
4:15 PM 76.6 °F - 65.1 °F 67% 29.95 in 10.0 mi SW 8.1 mph - N/A   Mostly Cloudy
4:34 PM 78.3 °F - 64.8 °F 63% 29.94 in 10.0 mi SW 10.4 mph - N/A   Scattered Clouds
4:54 PM 75.7 °F - 64.6 °F 68% 29.94 in 10.0 mi SSW 9.2 mph - N/A   Scattered Clouds
5:15 PM 75.7 °F - 65.1 °F 69% 29.94 in 10.0 mi SW 9.2 mph - N/A   Clear
5:34 PM 76.1 °F - 64.8 °F 68% 29.94 in 10.0 mi SW 9.2 mph - N/A   Clear
5:54 PM 74.7 °F - 64.8 °F 71% 29.95 in 10.0 mi SW 5.8 mph - N/A   Mostly Cloudy
6:15 PM 74.5 °F - 65.3 °F 73% 29.95 in 10.0 mi SSW 8.1 mph - N/A   Overcast
6:34 PM 74.3 °F - 65.7 °F 74% 29.95 in 10.0 mi South 5.8 mph - N/A   Mostly Cloudy
6:54 PM 73.6 °F - 64.9 °F 74% 29.95 in 10.0 mi SSW 6.9 mph - N/A   Scattered Clouds
7:14 PM 72.7 °F - 64.6 °F 76% 29.96 in 10.0 mi SSW 6.9 mph - N/A   Scattered Clouds
7:34 PM 71.1 °F - 64.4 °F 79% 29.96 in 10.0 mi Calm Calm - N/A   Scattered Clouds
7:55 PM 70.5 °F - 64.4 °F 81% 29.96 in 10.0 mi Calm Calm - N/A   Clear
8:14 PM 69.4 °F - 64.8 °F 85% 29.97 in 10.0 mi SSW 3.5 mph - N/A   Clear
8:34 PM 69.4 °F - 65.1 °F 86% 29.97 in 10.0 mi Calm Calm - N/A   Scattered Clouds
8:55 PM 69.6 °F - 65.5 °F 87% 29.98 in 10.0 mi Calm Calm - N/A   Mostly Cloudy
9:14 PM 68.9 °F - 64.8 °F 87% 29.97 in 10.0 mi Calm Calm - N/A   Overcast
9:34 PM 66.9 °F - 63.9 °F 90% 29.97 in 10.0 mi Calm Calm - N/A   Scattered Clouds
9:55 PM 65.8 °F - 63.3 °F 92% 29.97 in 10.0 mi Calm Calm - N/A   Scattered Clouds
10:14 PM 65.5 °F - 64.0 °F 95% 29.98 in 10.0 mi Calm Calm - N/A   Clear
10:34 PM 64.4 °F - 63.7 °F 98% 29.97 in 7.0 mi Calm Calm - N/A   Clear
10:55 PM 64.6 °F - 63.7 °F 97% 29.97 in 7.0 mi SE 3.5 mph - N/A   Clear
11:14 PM 64.6 °F - 64.0 °F 98% 29.98 in 7.0 mi Calm Calm - N/A   Clear
11:34 PM 64.8 °F - 64.4 °F 99% 29.97 in 7.0 mi ESE 4.6 mph - N/A   Clear